Everett, WA

6:18 AM PDT on June 27, 2017 (GMT -0700)
Snohomish County

Weather History for KPAE - February, 2012

Change the Weather History Date:

Wednesday, February 22, 2012

  Actual Average Record
Temperature  
Mean Temperature 45 °F -  
Max Temperature 48 °F 49 °F 63 °F (1958)
Min Temperature 41 °F 33 °F 23 °F (1957)
Degree Days  
Heating Degree Days 20    
Moisture  
Dew Point 37 °F    
Average Humidity 75    
Maximum Humidity 93    
Minimum Humidity 54    
Precipitation  
Precipitation 0.06 in - - ()
Sea Level Pressure  
Sea Level Pressure 30.07 in    
Wind  
Wind Speed 11 mph (WNW)    
Max Wind Speed 20 mph    
Max Gust Speed 31 mph    
Visibility 8 miles    
Events Rain    
Averages and records for this station are not official NWS values.
T = Trace of Precipitation, MM = Missing Value Source: NWS Daily Summary

Daily Weather History Graph

Daily Weather History Graph

Search for Another Location

Airport or City:

Trip Planner

Search our weather history database for the weather conditions in past years. The results will help you decide how hot, cold, wet, or windy it might be!

Date:

Astronomy

Feb. 22, 2012 Rise Set
Actual Time 7:03 AM PST 5:42 PM PST
Civil Twilight 6:32 AM PST 6:13 PM PST
Nautical Twilight 5:56 AM PST 6:49 PM PST
Astronomical Twilight 5:20 AM PST 7:25 PM PST
Moon 6:56 AM PST (2/22) 7:04 PM PST (2/22)
Length of Visible Light 11h 41m
Length of Day
10h 38m
New Moon, 1% of the Moon is Illuminated
Feb 22
New Moon
Feb 29
First Quarter
Mar 8
Full
Mar 14
Last Quarter
Mar 22
New

Hourly Weather History & Observations

Time (PST) Temp. Windchill Dew Point Humidity Pressure Visibility Wind Dir Wind Speed Gust Speed Precip Events Conditions
12:03 AM 48.2 °F - 44.6 °F 87% 30.00 in 10.0 mi SSW 11.5 mph 19.6 mph 0.00 in Rain Light Rain
12:53 AM 48.0 °F - 44.1 °F 86% 29.99 in 10.0 mi SW 13.8 mph 20.7 mph 0.00 in   Overcast
1:41 AM 48.2 °F - 44.6 °F 87% 29.96 in 10.0 mi SSW 15.0 mph - 0.01 in   Overcast
1:53 AM 48.0 °F - 44.1 °F 86% 29.95 in 10.0 mi SSW 15.0 mph 24.2 mph 0.01 in Rain Light Rain
2:44 AM 48.2 °F - 44.6 °F 87% 29.95 in 10.0 mi SW 15.0 mph - 0.00 in   Overcast
2:53 AM 48.2 °F - 44.6 °F 87% 29.94 in 10.0 mi SW 10.4 mph - N/A Rain Light Rain
3:34 AM 46.4 °F 41.9 °F 44.6 °F 93% 29.96 in 2.5 mi NNW 9.2 mph - 0.00 in   Overcast
3:37 AM 44.6 °F 41.4 °F 42.8 °F 93% 29.96 in 1.2 mi NNW 5.8 mph - 0.00 in   Overcast
3:47 AM 44.6 °F 40.2 °F 42.8 °F 93% 29.96 in 3.0 mi North 8.1 mph - 0.00 in   Overcast
3:53 AM 44.6 °F 39.7 °F 42.8 °F 93% 29.96 in 2.5 mi North 9.2 mph - N/A   Overcast
3:59 AM 44.6 °F 40.2 °F 42.8 °F 93% 29.96 in 0.8 mi North 8.1 mph - 0.00 in Rain Light Rain
4:50 AM 44.6 °F 41.4 °F 42.8 °F 93% 29.97 in 2.0 mi NNW 5.8 mph - 0.01 in Rain Light Rain
4:53 AM 45.0 °F 40.6 °F 42.1 °F 90% 29.98 in 3.0 mi NNW 8.1 mph - 0.01 in Rain Light Rain
5:46 AM 42.8 °F 37.5 °F 39.2 °F 87% 29.99 in 10.0 mi NW 9.2 mph 24.2 mph 0.01 in Rain Light Rain
5:53 AM 42.1 °F 37.1 °F 39.0 °F 89% 30.00 in 10.0 mi NW 8.1 mph 25.3 mph 0.01 in Rain Light Rain
6:11 AM 42.8 °F 36.6 °F 39.2 °F 87% 29.99 in 10.0 mi NNW 11.5 mph 27.6 mph 0.01 in Rain Light Rain
6:22 AM 42.8 °F 37.5 °F 37.4 °F 81% 29.99 in 10.0 mi NW 9.2 mph 31.1 mph 0.01 in Rain Light Rain
6:53 AM 44.1 °F 36.5 °F 36.0 °F 73% 30.00 in 10.0 mi NW 17.3 mph 27.6 mph 0.01 in   Overcast
7:53 AM 44.1 °F 35.9 °F 34.0 °F 68% 30.00 in 10.0 mi NNW 19.6 mph 31.1 mph N/A   Clear
8:53 AM 46.0 °F 39.6 °F 32.0 °F 58% 30.03 in 10.0 mi NW 15.0 mph 28.8 mph N/A   Clear
9:53 AM 46.9 °F - 30.9 °F 54% 30.07 in 10.0 mi WNW 11.5 mph 25.3 mph N/A   Partly Cloudy
10:53 AM 46.9 °F - 33.1 °F 59% 30.11 in 10.0 mi West 6.9 mph - N/A   Clear
11:53 AM 48.0 °F - 34.0 °F 58% 30.12 in 10.0 mi WNW 6.9 mph - N/A   Scattered Clouds
12:53 PM 48.0 °F - 33.1 °F 56% 30.12 in 10.0 mi NW 16.1 mph 28.8 mph N/A   Partly Cloudy
1:53 PM 48.9 °F - 34.0 °F 56% 30.12 in - WNW 12.7 mph 24.2 mph 0.02 in   Clear
2:53 PM 48.0 °F - 34.0 °F 58% 30.14 in 10.0 mi NW 11.5 mph 18.4 mph N/A   Scattered Clouds
3:53 PM 46.9 °F - 32.0 °F 56% 30.16 in 10.0 mi WNW 9.2 mph 17.3 mph N/A   Scattered Clouds
4:53 PM 46.9 °F - 33.1 °F 59% 30.17 in 10.0 mi WNW 8.1 mph 19.6 mph N/A   Mostly Cloudy
5:53 PM 44.1 °F 38.6 °F 33.1 °F 65% 30.19 in 10.0 mi NW 10.4 mph 19.6 mph N/A   Scattered Clouds
6:53 PM 43.0 °F 36.8 °F 30.9 °F 62% 30.21 in 10.0 mi NW 11.5 mph 23.0 mph N/A   Clear
7:53 PM 43.0 °F 36.8 °F 30.0 °F 60% 30.21 in 10.0 mi WNW 11.5 mph 26.5 mph N/A   Clear
8:53 PM 43.0 °F 37.2 °F 30.9 °F 62% 30.25 in 10.0 mi WNW 10.4 mph 17.3 mph N/A   Scattered Clouds
9:53 PM 43.0 °F 37.7 °F 30.9 °F 62% 30.28 in 10.0 mi West 9.2 mph - N/A   Overcast
10:53 PM 43.0 °F 40.3 °F 30.9 °F 62% 30.29 in 10.0 mi SSE 4.6 mph - N/A   Overcast
11:53 PM 41.0 °F 35.2 °F 35.1 °F 79% 30.32 in 10.0 mi SSE 9.2 mph - N/A   Overcast